{"data":{"norad_id":65380,"intl_designator":"2025-191B","name":"STARLINK-35051","alt_names":[],"object_type":"PAYLOAD","status":"ACTIVE","operator":null,"country":"US","launch_date":"2025-08-30","launch_site_code":"AFWTR","launch_vehicle":null,"mission":null,"orbit_class":"UNKNOWN","rcs_meters":null,"size_class":null,"mass_kg":null,"dimensions":null,"purposes":["comms"],"wikipedia_slug":null,"has_3d_model":false,"image_url":null,"decayed_at":null,"tle_current":{"epoch":"2026-09-20T13:04:05.207808Z","epoch_age_seconds":111112,"freshness":"FRESH","line1":"1 65380U 25191B   26263.54450472  .00011293  00000+0  35146-3 0  9997","line2":"2 65380  97.2847 129.5452 0002097  85.3752 274.7730 15.33457893 59650","mean_motion":15.33457893,"eccentricity":0.0002097,"inclination_deg":97.2847,"raan_deg":129.5452,"arg_perigee_deg":85.3752,"mean_anomaly_deg":274.773,"bstar":0.00035146,"rev_number":5965,"period_min":93.905415112693,"perigee_km":464.06970256145,"apogee_km":466.93992593835,"semimajor_km":6843.6418142499,"source":"CELESTRAK","updated_at":"2026-09-21T09:00:35.596935Z"}}}